Departure
Kobe Airport
Kobe, JP
cloud Weather
- Wind
- 230° / 15 kt
- Visibility
- 6 SM
- Ceiling
- FEW 2,500 ft
- Temp / Dew
- 30°C / 26°C
- Altimeter
- 29.88 inHg
Obs: 2026-09-01T08:00:00.000Z
Raw METAR
METAR RJBE 010800Z 23015KT 9999 FEW025 30/26 Q1012
route Route
Departure
Kobe, JP
Obs: 2026-09-01T08:00:00.000Z
METAR RJBE 010800Z 23015KT 9999 FEW025 30/26 Q1012
Arrival
Omitama, JP
Obs: 2026-09-01T08:00:00.000Z
METAR RJAH 010800Z 08007KT 9999 FEW010 BKN025 BKN050 25/23 Q1016 TAF RJAH 010505Z 0106/0212 07008KT 9999 FEW008 BKN015 BECMG 0121/0200 17008KT
| Airline | Flights shown |
|---|---|
| Skymark Airlines | 50 |
| Date | Flight | Aircraft | Takeoff | Landing | Duration | Arr Δ |
|---|---|---|---|---|---|---|
| 2026-07-26 | SKY186 | 868041 | Jul 26, 11:05 UTC | Jul 26, 12:40 UTC | 1h 35m | - |
| 2026-07-26 | SKY184 | 8681B2 | Jul 26, 03:50 UTC | Jul 26, 04:45 UTC | 55m | - |
| 2026-07-25 | SKY182 | 8681AB | Jul 25, 23:30 UTC | Jul 26, 00:25 UTC | 55m | - |
| 2026-07-25 | SKY186 | 868089 | Jul 25, 10:40 UTC | Jul 25, 11:35 UTC | 55m | - |
| 2026-07-25 | SKY184 | 8681BD | Jul 25, 03:35 UTC | Jul 25, 04:25 UTC | 50m | - |
| 2026-07-24 | SKY182 | 868088 | Jul 24, 23:20 UTC | Jul 25, 00:10 UTC | 50m | - |
| 2026-07-24 | SKY184 | 8681AB | Jul 24, 03:40 UTC | Jul 24, 04:40 UTC | 1h 0m | - |
| 2026-07-23 | SKY182 | 86803B | Jul 23, 23:20 UTC | Jul 24, 00:25 UTC | 1h 5m | - |
| 2026-07-23 | SKY184 | 86803A | Jul 23, 03:35 UTC | Jul 23, 04:30 UTC | 55m | - |
| 2026-07-22 | SKY182 | 8681AA | Jul 22, 23:20 UTC | Jul 23, 00:15 UTC | 55m | - |
| 2026-07-22 | SKY184 | 8681B1 | Jul 22, 03:30 UTC | Jul 22, 04:25 UTC | 55m | - |
| 2026-07-21 | SKY182 | 8681A8 | Jul 21, 23:15 UTC | Jul 22, 00:10 UTC | 55m | - |
| 2026-07-21 | SKY184 | 8681AB | Jul 21, 03:30 UTC | Jul 21, 04:20 UTC | 50m | - |
| 2026-07-20 | SKY182 | 8681BE | Jul 20, 23:15 UTC | Jul 21, 00:10 UTC | 54m | - |
| 2026-07-19 | SKY182 | 86803E | Jul 19, 23:25 UTC | Jul 20, 00:15 UTC | 50m | - |
| 2026-07-18 | SKY182 | 868038 | Jul 18, 23:15 UTC | Jul 19, 00:10 UTC | 55m | - |
| 2026-06-16 | SKY186 | 86803D | Jun 16, 10:45 UTC | Jun 16, 11:40 UTC | 55m | - |
| 2026-06-15 | SKY182 | 868038 | Jun 15, 23:15 UTC | Jun 16, 00:15 UTC | 1h 0m | - |
| 2026-06-15 | SKY186 | 8681AC | Jun 15, 10:35 UTC | Jun 15, 11:24 UTC | 50m | - |
| 2026-06-14 | SKY182 | 868089 | Jun 14, 23:20 UTC | Jun 15, 00:15 UTC | 55m | - |
| 2026-06-14 | SKY186 | 8681AB | Jun 14, 10:55 UTC | Jun 14, 11:50 UTC | 55m | - |
| 2026-06-14 | SKY184 | 8681BE | Jun 14, 03:50 UTC | Jun 14, 04:40 UTC | 50m | - |
| 2026-06-13 | SKY182 | 8681BA | Jun 13, 23:15 UTC | Jun 14, 00:10 UTC | 55m | - |
| 2026-06-13 | SKY186 | 868041 | Jun 13, 10:35 UTC | Jun 13, 11:30 UTC | 55m | - |
| 2026-06-13 | SKY184 | 86808A | Jun 13, 03:50 UTC | Jun 13, 04:40 UTC | 50m | - |
| 2026-06-12 | SKY182 | 8681A8 | Jun 12, 23:20 UTC | Jun 13, 00:15 UTC | 55m | - |
| 2026-06-12 | SKY186 | 868042 | Jun 12, 11:00 UTC | Jun 12, 11:45 UTC | 45m | - |
| 2026-06-12 | SKY184 | 8681B7 | Jun 12, 03:40 UTC | Jun 12, 04:40 UTC | 1h 0m | - |
| 2026-06-11 | SKY182 | 8681B0 | Jun 11, 23:20 UTC | Jun 12, 00:10 UTC | 50m | - |
| 2026-06-11 | SKY186 | 8681BD | Jun 11, 10:35 UTC | Jun 11, 11:30 UTC | 55m | - |
| 2026-06-11 | SKY184 | 8681A8 | Jun 11, 03:40 UTC | Jun 11, 04:30 UTC | 50m | - |
| 2026-06-11 | SKY182 | 868041 | Jun 11, 00:05 UTC | Jun 11, 00:55 UTC | 50m | - |
| 2026-06-10 | SKY186 | 06803B | Jun 10, 10:45 UTC | Jun 10, 11:30 UTC | 45m | - |
| 2026-06-10 | SKY184 | 86808A | Jun 10, 04:00 UTC | Jun 10, 04:50 UTC | 50m | - |
| 2026-06-09 | SKY182 | 8681B3 | Jun 9, 23:20 UTC | Jun 10, 00:10 UTC | 50m | - |
| 2026-06-09 | SKY186 | 8681B1 | Jun 9, 10:50 UTC | Jun 9, 11:40 UTC | 50m | - |
| 2026-06-09 | SKY184 | 8681B9 | Jun 9, 03:45 UTC | Jun 9, 04:30 UTC | 45m | - |
| 2026-06-08 | SKY182 | 868089 | Jun 8, 23:15 UTC | Jun 9, 00:15 UTC | 1h 0m | - |
| 2026-06-08 | SKY186 | 8681AD | Jun 8, 11:00 UTC | Jun 8, 11:45 UTC | 45m | - |
| 2026-06-08 | SKY184 | 8681B2 | Jun 8, 03:40 UTC | Jun 8, 04:35 UTC | 55m | - |
| 2026-06-07 | SKY182 | 8681AE | Jun 7, 23:15 UTC | Jun 8, 00:15 UTC | 1h 0m | - |
| 2026-06-07 | SKY186 | 8681BE | Jun 7, 10:45 UTC | Jun 7, 11:40 UTC | 55m | - |
| 2026-06-07 | SKY184 | 8681B6 | Jun 7, 03:40 UTC | Jun 7, 04:35 UTC | 55m | - |
| 2026-06-06 | SKY182 | 8681BA | Jun 6, 23:15 UTC | Jun 7, 00:14 UTC | 1h 0m | - |
| 2026-06-06 | SKY186 | 868089 | Jun 6, 10:39 UTC | Jun 6, 11:30 UTC | 50m | - |
| 2026-06-06 | SKY184 | 8681AC | Jun 6, 03:30 UTC | Jun 6, 04:25 UTC | 55m | - |
| 2026-06-05 | SKY182 | 868043 | Jun 5, 23:20 UTC | Jun 6, 00:10 UTC | 50m | - |
| 2026-06-05 | SKY186 | 8681B3 | Jun 5, 10:40 UTC | Jun 5, 11:35 UTC | 55m | - |
| 2026-06-05 | SKY184 | 8681BD | Jun 5, 03:40 UTC | Jun 5, 04:35 UTC | 55m | - |
| 2026-06-04 | SKY182 | 86803B | Jun 4, 23:20 UTC | Jun 5, 00:25 UTC | 1h 5m | - |